GPS BIIF-8 (PRN 03)

Last updated on Wed Sep 17 2025 00:03:17 GMT+0000 (Coordinated Universal Time)

1 40294U 14068A 25259.20638746 -.00000050 00000+0 00000+0 0 9991 2 40294 56.7954 41.5293 0061807 69.6920 290.9779 2.00559377 79710
UTC large
Height (km)
Speed (km/s)
/
Latitude / Longitude
Inclination (degrees)
Orbital Period (minutes)
Azimuth
Elevation
Range (km)
Doppler Factor

Next 0 passes for location: London (51.5072 / 0.1276)

Sorry there are no passes over London.